Regional Weather Roundup
Issued by NWS

Home | Current Version | Previous Version | Text Only | Print | Product List | Glossary Off
Versions: 1 2 3 4 5 6 7 8 9 10 11 12 13 14 15 16 17 18 19 20 21 22 23 24 25 26 27 28 29 30 31 32 33 34 35 36 37 38 39 40 41 42 43 44 45 46 47 48 49 50

307
ASUS43 KLMK 061110
RWRKY
KENTUCKY REGIONAL WEATHER ROUNDUP
NATIONAL WEATHER SERVICE LOUISVILLE KY
600 AM EST SAT FEB 06 2016

NOTE "FAIR" INDICATES FEW OR NO CLOUDS BELOW 12,000 FEET
WITH NO SIGNIFICANT WEATHER AND/OR OBSTRUCTIONS TO VISIBILITY.

KYZ001>023-026-027-061>063-070>075-061200-
WESTERN AND SOUTH CENTRAL KENTUCKY

CITY           SKY/WX    TMP DP  RH WIND       PRES   REMARKS
PADUCAH        CLEAR     29  21  72 SW3       30.33S
HENDERSON      PTCLDY    28  21  74 CALM      30.34S
OWENSBORO      CLEAR     28  24  85 CALM      30.35S
HOPKINSVILLE   CLEAR     30  22  73 S3        30.34F
BOWLING GREEN  CLEAR     26  21  81 CALM      30.37S
GLASGOW        CLEAR     30  18  61 CALM      30.36S
$$

KYZ024-025-028>034-038-045-046-053-061200-
NORTH CENTRAL KENTUCKY

CITY           SKY/WX    TMP DP  RH WIND       PRES   REMARKS
LOUISVILLE/SDF PTCLDY    30  23  75 CALM      30.35S
LOUISVILLE/LOU CLEAR     28  23  81 CALM      30.36S
FORT KNOX      CLEAR     24  19  80 CALM      30.32S
$$

KYZ035>037-039>044-047>052-055>060-089>105-061200-
NORTHEAST KENTUCKY

CITY           SKY/WX    TMP DP  RH WIND       PRES   REMARKS
LEXINGTON      CLEAR     28  18  66 S7        30.34S WCI  21
COVINGTON      PTCLDY    24  21  88 CALM      30.33S
FRANKFORT      CLEAR     25  18  74 CALM      30.33S
$$

KYZ054-064>069-076>088-106>120-061200-
SOUTHEAST KENTUCKY

CITY           SKY/WX    TMP DP  RH WIND       PRES   REMARKS
JACKSON        PTCLDY    29  15  56 SW3       30.35R
LONDON         PTCLDY    25  19  78 CALM      30.36S
SOMERSET       CLEAR     27  19  74 CALM      30.38S
MIDDLESBORO    PTCLDY    24  23  94 CALM      30.39S
MONTICELLO     SUNNY     22  18  85 W12       30.38S WCI  10
$$





USA.gov is the U.S. government's official web portal to all federal, state and local government web resources and services.